STARLINK-5764, 55602

Orbit data source: Space-Track

STARLINK-5764, 55602 is a payload satellite owned by SpaceX/Seattle (US) in LEO that was launched on Sun, 12 Feb 2023 UTC via an FALCON 9 launch vehicle from the Air Force Eastern Test Range (AFETR). Payload-class satellites include a variety of spacecraft equipped with specific instruments for various scientific and technological missions. These include communications satellites like Starlink; space stations such as the ISS; scientific satellites like the Hubble; Earth observation satellites from companies like Planet Labs, Umbra, and HawkEye 360; GPS; miniature CubeSats for education and research; and military/defense satellites.

Loading next visibility...
Identifier
55602, 2023-020AK
Orbit
LEO
Country
Flag of USUS
Related business
Manufacturer
SpaceX/Seattle
Mission
Operational spacecraft
Bus & Motor
STARLINK, Unknown motor
Mass
305 kg wet, ~290 kg dry
Launch date (UTC)
2023-02-12 (3 years ago)
Launch vehicle
FALCON 9
Launch site
Air Force Eastern Test Range (AFETR)
Object type
Payload
Rocket body
Debris
Shape & HBR
Unknown shape, 10.1 m
Radar Cross Section
Large (>1 m²)

Expand to show TLE details & history
Last TLE update: 15 hours ago

TLE from 15 hours ago
0 STARLINK-5764
1 55602U 23020AK  25340.74778443  .00000318  00000-0  38638-4 0  9997
2 55602  43.0027 137.0786 0001273 272.3742  87.6954 15.02531325155083
Epoch: 2025-12-06T17:56Z
TLE epoch observation values (Epoch: 2025-12-06T17:56:48.574Z)
Latitude
-0.00007°
Longitude
152.10505°
Altitude
558.837 km
Speed
7.584 km/s
True Right ascension
09h 08m 18s
True Declination
0° 00' 00"
Sunlit
Object was in full shadow at epoch
Visualization orbit readout
Latitude
Unknown
Longitude
Unknown
Altitude
Unknown
Speed
Unknown
Apparent Right ascension
Unknown
Apparent Declination
Unknown
Sunlit
N/A
Visualization observer readout
Local Sidereal Time
07:23:03
Azimuth
Unknown
Elevation
Unknown
Doppler factor
Unknown
Orbital elements
Apogee altitude
561.901 km
Perigee altitude
560.134 km
Semi-major axis
6,939.154 km
Eccentricity
0.00013
Inclination
43.0027°
RAAN
137.0786°
Arg. of periapsis
272.3742°
True anomaly
87.70998°
Mean anomaly
87.6954°
Eccentric anomaly
87.70269°
Mean motion
3.75477 °/min
Orbital period
95.88 mins
BSTAR
0.000038638
Loading maneuver chart data...
Computing Atmospheric mass density...
Loading historical data...
Loading historical data...
Loading historical data...
Loading historical data...
Loading historical data...
Loading historical data...
Loading historical data...

Documentation

Showing up to 5 results
|